User: anonymous   Login
Location: Bush Observatory
(40.2653°N, 94.3194°W)
Time: 08:56:10
(UTC-05:00)
Language:

Cosmos 1933 Rocket - Orbit

View from above orbital plane
View from above orbital plane
View from above satellite
View from above satellite

Ground track
Ground track

The orbit data is extracted from the following two-line orbital elements,

1 18959U 88020B   17111.69849495 +.00000111 +00000-0 +10668-4 0  9993
2 18959 082.5364 323.6069 0016025 328.1963 031.8283 14.83332381551122
Epoch (UTC): 21 April 2017 16:45:49
Eccentricity: 0.0016025
inclination: 82.5364°
perigee height: 607 km
apogee height: 630 km
right ascension of ascending node: 323.6069°
argument of perigee: 328.1963°
revolutions per day: 14.83332381
mean anomaly at epoch: 31.8283°
orbit number at epoch: 55112

The dashed part of the orbit path shows where the satellite is in the earth's shadow,  

DLR